EZY17LC LPPT-EGKK

Flight info

Callsign EZY17LC
Flight time N/A
Altitude 36000
Route IXIDA DCT PINEK DCT KORUL DCT FEJAC DCT JSY/N0453F340 DCT REVTU UP88 VASUX
Aircraft A21N/M-SDE3FGHIRWY/LB1

Departure

Time 2026-04-28 12:59
Airport Lisbon Humberto Delgado Airport (LPPT)

Arrival

Time N/A
Airport London Gatwick Airport (EGKK)
Time Latitude Longitude Altitude Speed Heading
2026-04-28 12:27 38.77206 -9.13143 334 ft 0 kts 78°
2026-04-28 12:50 38.77203 -9.13158 333 ft 3 kts 81°
2026-04-28 12:50 38.77204 -9.13181 332 ft 3 kts 100°
2026-04-28 12:50 38.77213 -9.13201 332 ft 3 kts 142°
2026-04-28 12:50 38.77226 -9.13218 334 ft 3 kts 134°
2026-04-28 12:51 38.77240 -9.13234 334 ft 3 kts 160°
2026-04-28 12:51 38.77251 -9.13239 333 ft 0 kts 171°
2026-04-28 12:53 38.77233 -9.13235 333 ft 4 kts 170°
2026-04-28 12:54 38.77212 -9.13230 334 ft 4 kts 167°
2026-04-28 12:54 38.77168 -9.13217 336 ft 7 kts 167°
2026-04-28 12:54 38.77096 -9.13197 337 ft 16 kts 168°
2026-04-28 12:54 38.76987 -9.13167 338 ft 16 kts 168°
2026-04-28 12:55 38.76884 -9.13139 337 ft 15 kts 168°
2026-04-28 12:55 38.76794 -9.13141 336 ft 11 kts 221°
2026-04-28 12:55 38.76764 -9.13267 341 ft 16 kts 257°
2026-04-28 12:55 38.76735 -9.13391 346 ft 13 kts 233°
2026-04-28 12:56 38.76657 -9.13481 351 ft 21 kts 245°
2026-04-28 12:56 38.76620 -9.13694 349 ft 25 kts 258°
2026-04-28 12:56 38.76588 -9.13892 346 ft 19 kts 257°
2026-04-28 12:56 38.76538 -9.14041 352 ft 20 kts 230°
2026-04-28 12:57 38.76499 -9.14181 351 ft 14 kts 279°
2026-04-28 12:57 38.76531 -9.14285 335 ft 8 kts 293°
2026-04-28 12:57 38.76533 -9.14291 335 ft 1 kts 293°
2026-04-28 12:57 38.76549 -9.14339 333 ft 13 kts 293°
2026-04-28 12:58 38.76631 -9.14393 336 ft 15 kts 18°
2026-04-28 12:58 38.76812 -9.14299 345 ft 56 kts 23°
2026-04-28 12:58 38.77365 -9.14005 363 ft 114 kts 22°
2026-04-28 12:58 38.78244 -9.13533 371 ft 158 kts 22°
2026-04-28 12:59 38.79299 -9.12967 769 ft 164 kts 26°
2026-04-28 12:59 38.80372 -9.12385 1285 ft 171 kts 24°
2026-04-28 12:59 38.81477 -9.11761 1812 ft 175 kts 27°
2026-04-28 12:59 38.82528 -9.10935 2256 ft 182 kts 32°
2026-04-28 13:00 38.83694 -9.10026 2585 ft 205 kts 31°
2026-04-28 13:00 38.84993 -9.09029 2834 ft 232 kts 31°
2026-04-28 13:00 38.86458 -9.07905 3282 ft 257 kts 32°
2026-04-28 13:00 38.88048 -9.06685 3772 ft 272 kts 31°
2026-04-28 13:01 38.89659 -9.05388 4570 ft 274 kts 38°
2026-04-28 13:01 38.91091 -9.03816 5417 ft 275 kts 41°
2026-04-28 13:01 38.92536 -9.02147 6253 ft 277 kts 42°
2026-04-28 13:01 38.93946 -9.00491 6997 ft 280 kts 43°
2026-04-28 13:02 38.95389 -8.98789 7732 ft 284 kts 43°
2026-04-28 13:02 38.96856 -8.97061 8453 ft 288 kts 43°
2026-04-28 13:02 38.98343 -8.95315 9205 ft 291 kts 43°
2026-04-28 13:02 38.99853 -8.93545 9894 ft 296 kts 43°
2026-04-28 13:03 39.01421 -8.91708 10185 ft 316 kts 43°
2026-04-28 13:03 39.03107 -8.89736 10338 ft 339 kts 43°
2026-04-28 13:03 39.04889 -8.87654 10750 ft 351 kts 43°
2026-04-28 13:03 39.06706 -8.85532 11389 ft 355 kts 43°
2026-04-28 13:04 39.08544 -8.83382 12059 ft 359 kts 43°
2026-04-28 13:04 39.10404 -8.81208 12726 ft 363 kts 43°
2026-04-28 13:04 39.12279 -8.79008 13370 ft 367 kts 43°
2026-04-28 13:04 39.14175 -8.76777 13981 ft 371 kts 43°
2026-04-28 13:05 39.16091 -8.74523 14573 ft 375 kts 44°
2026-04-28 13:05 39.17896 -8.72086 15154 ft 378 kts 50°
2026-04-28 13:05 39.19634 -8.69529 15735 ft 381 kts 50°
2026-04-28 13:05 39.21389 -8.66952 16328 ft 384 kts 50°
2026-04-28 13:06 39.23161 -8.64356 16912 ft 387 kts 50°
2026-04-28 13:06 39.24952 -8.61737 17491 ft 391 kts 50°
2026-04-28 13:06 39.26755 -8.59099 18070 ft 394 kts 50°
2026-04-28 13:06 39.28572 -8.56438 18577 ft 396 kts 50°
2026-04-28 13:07 39.30400 -8.53753 19060 ft 399 kts 50°
2026-04-28 13:07 39.32285 -8.51104 19519 ft 403 kts 43°
2026-04-28 13:07 39.34619 -8.49068 19952 ft 409 kts 25°
2026-04-28 13:07 39.36395 -8.48254 20246 ft 411 kts 13°
2026-04-28 13:08 39.40187 -8.47978 20818 ft 416 kts 357°
2026-04-28 13:08 39.43088 -8.48120 21268 ft 419 kts 357°
2026-04-28 13:08 39.46012 -8.48271 21722 ft 422 kts 357°
2026-04-28 13:08 39.48957 -8.48423 22168 ft 426 kts 357°
2026-04-28 13:09 39.51928 -8.48573 22591 ft 429 kts 357°
2026-04-28 13:09 39.54929 -8.48719 23015 ft 433 kts 357°
2026-04-28 13:09 39.57951 -8.48863 23434 ft 436 kts 358°
2026-04-28 13:09 39.60995 -8.49002 23784 ft 439 kts 358°
2026-04-28 13:10 39.64058 -8.49137 24150 ft 442 kts 357°
2026-04-28 13:10 39.67140 -8.49275 24514 ft 444 kts 357°
2026-04-28 13:10 39.70239 -8.49418 24875 ft 447 kts 357°
2026-04-28 13:10 39.73349 -8.49563 25260 ft 448 kts 357°
2026-04-28 13:11 39.76474 -8.49708 25656 ft 450 kts 357°
2026-04-28 13:11 39.79612 -8.49856 26018 ft 452 kts 356°
2026-04-28 13:11 39.82765 -8.50007 26365 ft 454 kts 356°
2026-04-28 13:11 39.85933 -8.50161 26716 ft 457 kts 356°
2026-04-28 13:12 39.89117 -8.50313 27036 ft 459 kts 356°
2026-04-28 13:12 39.92320 -8.50461 27367 ft 462 kts 356°
2026-04-28 13:12 39.95536 -8.50608 27700 ft 464 kts 356°
2026-04-28 13:12 39.98771 -8.50758 28031 ft 466 kts 356°
2026-04-28 13:13 40.02015 -8.50909 28358 ft 468 kts 356°
2026-04-28 13:13 40.05281 -8.51061 28672 ft 470 kts 356°
2026-04-28 13:13 40.08564 -8.51216 28974 ft 473 kts 356°
2026-04-28 13:13 40.11858 -8.51375 29259 ft 475 kts 356°
2026-04-28 13:14 40.15167 -8.51536 29548 ft 477 kts 356°
2026-04-28 13:14 40.18495 -8.51695 29848 ft 479 kts 356°
2026-04-28 13:14 40.21831 -8.51853 30117 ft 481 kts 356°
2026-04-28 13:14 40.24095 -8.51962 30297 ft 482 kts 356°
2026-04-28 13:15 40.27407 -8.52122 30630 ft 482 kts 356°
2026-04-28 13:15 40.30749 -8.52281 31020 ft 480 kts 356°
2026-04-28 13:15 40.34133 -8.52441 31408 ft 479 kts 356°
2026-04-28 13:15 40.37459 -8.52597 31802 ft 478 kts 356°
2026-04-28 13:16 40.40776 -8.52750 32200 ft 476 kts 356°
2026-04-28 13:16 40.44039 -8.52902 32591 ft 475 kts 356°
2026-04-28 13:16 40.47384 -8.53058 32992 ft 474 kts 356°
2026-04-28 13:16 40.50630 -8.53212 33387 ft 472 kts 356°
2026-04-28 13:17 40.53911 -8.53368 33774 ft 471 kts 356°
2026-04-28 13:17 40.57183 -8.53524 34109 ft 470 kts 356°
2026-04-28 13:17 40.60450 -8.53683 34428 ft 469 kts 357°
2026-04-28 13:17 40.63747 -8.53842 34776 ft 467 kts 357°
2026-04-28 13:18 40.66988 -8.53998 35082 ft 466 kts 357°
2026-04-28 13:18 40.70230 -8.54156 35368 ft 466 kts 357°
2026-04-28 13:18 40.73462 -8.54314 35643 ft 465 kts 357°
2026-04-28 13:18 40.76701 -8.54473 35848 ft 466 kts 357°